Location: Unspecified
(0.0000°N, 0.0000°E)
Time: 13:29:28
(UTC+00:00)

deb Explorer IX - Visible Passes

Search period start: 24 October 2014 00:00
Search period end: 03 November 2014 00:00
Orbit: 559 x 1207 km, 38.8° (Epoch: 22 October)

Date Brightness Start Highest point End Pass type
(mag) Time Alt. Az. Time Alt. Az. Time Alt. Az.
29 Oct ? 20:42:34 10° SSW 20:43:30 14° S 20:43:30 14° S visible
30 Oct ? 20:37:34 10° SSW 20:39:18 18° SSW 20:39:18 18° SSW visible
31 Oct ? 20:32:36 10° SSW 20:35:06 23° SSW 20:35:06 23° SSW visible
01 Nov ? 18:44:04 10° SSE 18:45:50 11° SE 18:47:39 10° SE visible
01 Nov ? 20:27:41 10° SW 20:30:53 30° SSW 20:30:53 30° SSW visible
02 Nov ? 18:37:34 10° S 18:41:05 15° SE 18:44:05 12° ESE visible
02 Nov ? 20:22:47 10° SW 20:26:38 38° SW 20:26:38 38° SW visible
